Location: Unspecified
(0.0000°N, 0.0000°E)
Time: 18:10:00
(UTC+00:00)

CAPRICORN - Pass Details

Date: 27 October 2019
Orbit: 325 x 40040 km, 64.5° (Epoch: 16 April)

Event Time Altitude Azimuth Distance (km) Brightness Sun altitude
Rises 10:12:46 0° 107° (ESE) 26,984 ? 64.1°
Reaches altitude 10° 11:00:29 10° 96° (E) 32,867 ? 73.3°
Maximum altitude 15:41:35 55° 28° (NNE) 39,759 ? 29.7°
Drops below altitude 10° 19:28:32 10° 4° (N) 18,081 ? -25.5°
Sets 19:44:27 0° 12° (NNE) 15,279 ? -29.3°
